Regional Weather Roundup
Issued by NWS

Home | Current Version | Previous Version | Graphics & Text | Print | Product List | Glossary Off
Versions: 1 2 3 4 5 6 7 8 9 10 11 12 13 14 15 16 17 18 19 20 21 22 23 24 25 26 27 28 29 30 31 32 33 34 35 36 37 38 39 40 41 42 43 44 45 46 47 48 49 50

000
ASUS43 KDMX 270007
RWRIA

WEATHER ROUNDUP FOR IOWA
NATIONAL WEATHER SERVICE DES MOINES IA
600 PM CST WED NOV 26 2014

NOTE: "FAIR" INDICATES FEW OR NO CLOUDS BELOW 12,000 FEET WITH NO
SIGNIFICANT WEATHER AND/OR OBSTRUCTIONS TO VISIBILITY.

* - THESE STATIONS ARE NOT NWS STATIONS...THUS NOT UNDER NWS
QUALITY CONTROL.  THEY ALSO DO NOT REPORT WEATHER SUCH
AS PRECIPITATION OR FOG.

IAZ001>003-012>014-020>022-031>034-043>046-270100-
   NORTHWEST IOWA

CITY           SKY/WX    TMP DP  RH WIND       PRES   REMARKS
CARROLL *      CLOUDY    23  19  86 NW23      30.27R WCI   7
CHEROKEE *     CLOUDY    19  16  88 N15G23    30.33R WCI   5
DENISON *      CLOUDY    23  19  86 N21       30.29R WCI   8
LE MARS *      CLOUDY    19  16  86 N12       30.37R WCI   7
ORANGE CITY *  CLOUDY    18  12  79 N15G21    30.32R WCI   3
SHELDON *      CLOUDY    14  10  85 N18       30.32R WCI  -3
SIOUX CITY     CLOUDY    21  15  78 N17       30.36R WCI   7
6HR MIN TEMP:  21; 6HR MAX TEMP:  29;

SPENCER        CLOUDY    18  13  80 N20       30.31R WCI   2
6HR MIN TEMP:  18; 6HR MAX TEMP:  26; 6HR PCP: TRACE;

STORM LAKE *   CLOUDY    19  18  93 N18G24    30.29R WCI   4
$$

IAZ055>058-069>071-079>083-090>094-270100-
   SOUTHWEST IOWA

CITY           SKY/WX    TMP DP  RH WIND       PRES   REMARKS
ATLANTIC *     CLOUDY    25  21  86 N24G31    30.26R WCI   9
AUDUBON *      CLEAR     23  18  80 N22       30.27R WCI   8
CLARINDA *     CLOUDY    28  23  80 N21G33    30.27R WCI  15
COUNCIL BLFS * CLOUDY    25  21  86 N23G33    30.28R WCI  10
CRESTON *      MIX PCPN  27  25  93 N24G31    30.19R WCI  12
HARLAN  *      CLOUDY    23  21  93 N21G29    30.33R WCI   8
LAMONI         CLOUDY    29  26  89 N20       30.16R WCI  16
6HR MIN TEMP:  29; 6HR MAX TEMP:  33;

RED OAK *      CLOUDY    27  23  86 N21G28    30.28R WCI  13
SHENANDOAH *   CLOUDY    28  23  80 N21G29    30.29R WCI  15
$$

IAZ047>049-059>061-072>074-084-270100-
   CENTRAL IOWA

CITY           SKY/WX    TMP DP  RH WIND       PRES   REMARKS
AMES           LGT SNOW  27  23  85 N17       30.21R FOG     WCI  14
6HR MIN TEMP:  27; 6HR MAX TEMP:  30; 6HR PCP:  0.02;

ANKENY *       MIX PCPN  30  28  93 N14       30.20R WCI  20
CHARITON *     CLOUDY    30  28  93 N13       30.14R FOG     WCI  20
DES MOINES     LGT SNOW  31  27  85 N14       30.19R FOG     WCI  21
6HR MIN TEMP:  31; 6HR MAX TEMP:  32; 6HR PCP:  0.01;

GRINNELL*      LGT SNOW  28  27  93 N16       30.17R WCI  17
KNOXVILLE *    LGT SNOW  30  28  93 N12G17    30.15R WCI  21
MARSHALLTOWN   LGT SNOW  28  25  88 N18       30.19R FOG     WCI  15
6HR MIN TEMP:  28; 6HR MAX TEMP:  31; 6HR PCP: TRACE;

PELLA *        LGT SNOW  31  29  95 N14       30.17R WCI  20
PERRY *        LGT SNOW  28  27  93 N17G23    30.23R WCI  16
$$

IAZ004>006-015-016-023>025-035-036-270100-
   NORTH CENTRAL IOWA

CITY           SKY/WX    TMP DP  RH WIND       PRES   REMARKS
ALGONA *       CLOUDY    19  18  93 N15G24    30.27R WCI   5
CLARION *      LGT SNOW  25  25 100 N13       30.24R VSB 1   WCI  13
ESTHERVILLE    MIX PCPN  14  11  87 NW23      30.30R FOG     WCI  -5
6HR MIN TEMP:  14; 6HR MAX TEMP:  24; 6HR PCP: TRACE;

FORT DODGE *   CLOUDY    25  19  80 NW8G17    30.26R WCI  16
MASON CITY     LGT SNOW  24  22  91 N12       30.24R FOG     WCI  13
6HR MIN TEMP:  24; 6HR MAX TEMP:  29; 6HR PCP:  0.03;

FOREST CITY *  CLOUDY    27  25  93 N15       30.24R WCI  15
IOWA FALLS *   LGT SNOW  27  25  93 N6        30.21R WCI  20
$$

IAZ007>011-017>019-026>030-037>042-050>054-066-270100-
   NORTHEAST IOWA

CITY           SKY/WX    TMP DP  RH WIND       PRES   REMARKS
CEDAR RAPIDS   CLOUDY    28  25  88 NE12      30.16R FOG     WCI  18
6HR MIN TEMP:  28; 6HR MAX TEMP:  30; 6HR PCP: TRACE;

CHARLES CITY * LGT SNOW  25  25 100 N7        30.22R WCI  17
CLINTON *      CLOUDY    27  19  74 NE8       30.18R WCI  18
DECORAH *      LGT SNOW  25  23  93 N5        30.19R WCI  19
DUBUQUE        CLOUDY    25  22  88 NE12      30.16R WCI  14
6HR MIN TEMP:  23; 6HR MAX TEMP:  27;

MONTICELLO *   CLOUDY    27  25  93 N9G15     30.18R WCI  17
OELWEIN *      LGT SNOW  27  25  93 N9        30.19R WCI  17
WATERLOO       LGT SNOW  27  25  92 N12       30.20R FOG     WCI  17
6HR MIN TEMP:  27; 6HR MAX TEMP:  31; 6HR PCP:  0.03;

$$

IAZ064-065-067-068-078-270100-
   EAST CENTRAL IOWA

CITY           SKY/WX    TMP DP  RH WIND       PRES   REMARKS
DAVENPORT      CLOUDY    27  21  78 NE7       30.16R WCI  19
6HR MIN TEMP:  26; 6HR MAX TEMP:  28;

IOWA CITY      LGT SNOW  28  25  88 NE12      30.18R FOG     WCI  18
6HR MIN TEMP:  28; 6HR MAX TEMP:  30; 6HR PCP: TRACE;

MT. PLEASANT * LGT SNOW  29  29 100 NE10      30.13R WCI  19
MUSCATINE *    CLOUDY    30  27  86 NE9       30.16R WCI  22
QUAD CITIES    CLOUDY    28  22  78 NE10      30.15R WCI  19
6HR MIN TEMP:  28; 6HR MAX TEMP:  29;

$$

IAZ062-063-075>077-085>089-095>099-270100-
   SOUTHEAST IOWA

CITY           SKY/WX    TMP DP  RH WIND       PRES   REMARKS
BURLINGTON     LGT SNOW  30  29  96 NE10      30.11R FOG     WCI  21
6HR MIN TEMP:  30; 6HR MAX TEMP:  32; 6HR PCP:  0.11;

FAIRFIELD *    LGT SNOW  28  27  93 N12       30.13R WCI  18
FORT MADISON * LGT SNOW  32  30  93 NE7       30.11R WCI  26
KEOKUK *       LGT SNOW  32  30  93 NE9       30.08R WCI  24
OSKALOOSA *    LGT SNOW  29  28  94 N14       30.15R WCI  18
CENTERVILLE *  LGT SNOW  30  30 100 N9        30.12R WCI  22
OTTUMWA        LGT SNOW  29  26  89 N12       30.14R FOG     WCI  19
6HR MIN TEMP:  29; 6HR MAX TEMP:  31; 6HR PCP:  0.03;

WASHINGTON *   LGT SNOW  28  28 100 NE14      30.14R WCI  17
$$

ABBREVIATIONS USED IN REMARKS
   TC - TEMPERATURES IN CELSIUS
  WCI - WIND CHILL INDEX
   HX - HEAT INDEX
  VSB - VISIBILITY
$$



USA.gov is the U.S. government's official web portal to all federal, state and local government web resources and services.